Location: Puketoi
(40.5833°S, 176.0167°E)
Time: 14:59:57
(UTC+00:00)

Cosmos 1455 - Pass Details

Date: 08 February 2023
Orbit: 481 x 502 km, 82.5° (Epoch: 22 March)

Event Time Altitude Azimuth Distance (km) Brightness Sun altitude
Rises 16:38:20 0° 196° (SSW) 2,585 5.9 -10.2°
Reaches altitude 10° 16:40:32 10° 203° (SSW) 1,695 4.9 -9.8°
Maximum altitude 16:44:00 39° 273° (W) 754 2.6 -9.2°
Drops below altitude 10° 16:47:26 10° 342° (NNW) 1,675 4.4 -8.6°
Sets 16:49:36 0° 350° (N) 2,550 5.4 -8.3°
